Home   Weather   Barnaul   Past weeks
Flag for Russia

Past Weather in Barnaul, Russia — Yesterday and Last 2 Weeks

Now
19 °F

Clear.


Feels Like: 9 °F
Forecast: 27 / 16 °F
Wind: 8 mph from Southwest

Location: Barnaul Airport

Current Time: Oct 21, 2019 at 11:36:18 pm

Latest Report: Oct 21, 2019 at 11:00 pm


Visibility: 10 mi

Pressure: 30.57 "Hg

Humidity: 79%

Dew Point: 14 °F

Location of BarnaulLocation

Past Weather in Barnaul — Graph

°F

Barnaul Temperature Yesterday

Maximum temperature yesterday: 25 °F (at 12:00 am)
Minimum temperature yesterday: 23 °F (at 1:00 am)
Average temperature yesterday: 24 °F

High & Low Weather Summary for the Past Weeks

 TemperatureHumidityPressure
High72 °F (Oct 7, 3:00 pm)100% (Oct 18, 5:30 am)30.57 "Hg (Oct 18, 5:30 am)
Low14 °F (Oct 21, 9:00 am)21% (Oct 10, 5:00 pm)29.56 "Hg (Oct 17, 12:30 am)
Average41 °F68%30.12 "Hg
* Reported Oct 6 10:00 pm — Oct 21 10:00 pm, Barnaul. Weather by CustomWeather, © 2019

Note: Actual official high and low records may vary slightly from our data, if they occured in-between our weather recording intervals... More about our weather records

Advertising

Barnaul Weather History for the Previous 24 Hours

Scroll right to see more
 ConditionsComfort  
Time TempWeatherWind HumidityBarometerVisibility
10:00 pm
Mon, Oct 21
21 °FClear.8 mph74%30.57 "Hg10 mi
9:30 pm21 °FClear.8 mph74%30.57 "Hg10 mi
9:00 pm21 °FClear.8 mph74%30.57 "Hg10 mi
8:30 pm23 °FClear.8 mph68%30.57 "Hg10 mi
8:00 pm23 °FClear.6 mph74%30.57 "Hg10 mi
7:30 pm25 °FClear.8 mph63%30.57 "Hg10 mi
7:00 pm25 °FClear.8 mph63%30.57 "Hg10 mi
6:30 pm25 °FPassing clouds.6 mph63%30.54 "HgN/A
6:00 pm25 °FPassing clouds.6 mph63%30.54 "HgN/A
5:30 pm27 °FPassing clouds.6 mph59%30.54 "HgN/A
5:00 pm27 °FPassing clouds.6 mph54%30.54 "HgN/A
4:30 pm28 °FPassing clouds.3 mph51%30.51 "HgN/A
3:30 pm27 °FSunny.3 mph54%30.51 "Hg10 mi
3:00 pm27 °FSunny.3 mph54%30.51 "Hg10 mi
2:30 pm27 °FPassing clouds.3 mph50%30.51 "HgN/A
2:00 pm25 °FPassing clouds.3 mph54%30.51 "HgN/A
1:30 pm27 °FSunny.3 mph54%30.51 "Hg10 mi
1:00 pm25 °FSunny.3 mph59%30.51 "Hg10 mi
12:30 pm23 °FSunny.6 mph63%30.51 "Hg10 mi
12:00 pm23 °FSunny.6 mph63%30.48 "Hg10 mi
11:30 am23 °FSunny.8 mph63%30.48 "Hg10 mi
11:00 am21 °FSunny.8 mph68%30.48 "Hg10 mi
10:30 am19 °FSunny.3 mph73%30.48 "Hg10 mi
9:30 am16 °FScattered clouds.3 mph79%30.48 "HgN/A
9:00 am14 °FSunny.6 mph79%30.48 "Hg10 mi
8:30 am16 °FPartly sunny.6 mph79%30.45 "HgN/A
8:00 am18 °FPassing clouds.6 mph73%30.45 "HgN/A
7:00 am16 °FPassing clouds.8 mph73%30.42 "HgN/A
6:30 am19 °FPassing clouds.3 mph68%30.42 "HgN/A
6:00 am21 °FPassing clouds.6 mph63%30.42 "HgN/A
5:30 am21 °FPassing clouds.10 mph58%30.39 "HgN/A
5:00 am21 °FPassing clouds.6 mph63%30.39 "HgN/A
4:30 am21 °FPassing clouds.8 mph63%30.39 "HgN/A
4:00 am21 °FPassing clouds.10 mph63%30.39 "HgN/A
3:30 am21 °FPassing clouds.8 mph63%30.39 "HgN/A
3:00 am21 °FPassing clouds.6 mph68%30.39 "HgN/A
2:30 am21 °FPassing clouds.10 mph63%30.39 "HgN/A
2:00 am23 °FPassing clouds.10 mph58%30.36 "HgN/A
1:30 am23 °FPassing clouds.10 mph58%30.36 "HgN/A
1:00 am23 °FPassing clouds.10 mph58%30.36 "HgN/A
12:30 am23 °FPassing clouds.10 mph58%30.36 "HgN/A
12:00 am23 °FPassing clouds.10 mph54%30.36 "HgN/A
11:30 pm
Sun, Oct 20
23 °FPassing clouds.8 mph58%30.36 "HgN/A
11:00 pm23 °FPassing clouds.10 mph58%30.36 "HgN/A
Weather by CustomWeather, © 2019

See weather overview